1513364400.73,24338,6.56,71850.8,-8.21,-12.39,-12.35,0,*59
1513364401.94,24339,6.56,71846.0,-8.21,-12.39,-12.39,0,*54
1513364403.15,24340,6.56,71848.3,-8.21,-12.39,-12.39,0,*5A
1513364404.39,24341,6.56,71844.5,-8.21,-12.39,-12.35,0,*57
1513364405.62,24342,6.56,71848.5,-8.21,-12.39,-12.35,0,*54
1513364406.89,24343,6.56,71846.3,-8.23,-12.39,-12.35,0,*57
1513364408.1,24344,6.56,71850.8,-8.21,-12.39,-12.25,0,*53
1513364409.33,24345,6.56,71850.3,-8.21,-12.35,-12.25,0,*5E
1513364410.54,24346,6.56,71848.0,-8.21,-12.39,-12.25,0,*51
1513364411.8,24347,6.56,71844.8,-8.23,-12.35,-12.25,0,*5E
1513364413.04,24348,6.56,71844.5,-8.21,-12.35,-12.25,0,*53
1513364414.3,24349,6.56,71844.0,-8.23,-12.35,-12.25,0,*50
1513364415.54,24350,6.56,71848.0,-8.21,-12.35,-12.25,0,*5A
1513364416.78,24351,6.56,71846.0,-8.21,-12.35,-12.25,0,*5B
1513364417.99,24352,6.56,71846.0,-8.21,-12.39,-12.25,0,*54
1513364419.25,24353,6.56,71848.5,-8.23,-12.39,-12.35,0,*56
1513364420.49,24354,6.56,71850.3,-8.21,-12.35,-12.25,0,*5E
1513364421.72,24355,6.56,71846.3,-8.21,-12.35,-12.25,0,*5F
1513364422.99,24356,6.56,71848.5,-8.21,-12.35,-12.35,0,*5D
1513364424.23,24357,6.56,71848.3,-8.19,-12.29,-12.29,0,*57
1513364425.49,24358,6.56,71848.5,-8.23,-12.35,-12.25,0,*50
1513364426.7,24359,6.56,71848.0,-8.21,-12.39,-12.39,0,*52
1513364427.96,24360,6.56,71848.3,-8.23,-12.39,-12.35,0,*56
1513364429.22,24361,6.56,71848.3,-8.23,-12.35,-12.39,0,*57
1513364430.49,24362,6.56,71850.3,-8.23,-12.39,-12.35,0,*54
1513364431.7,24363,6.56,71850.0,-8.21,-12.39,-12.39,0,*5B
1513364432.93,24364,6.56,71848.0,-8.23,-12.39,-12.39,0,*5E
1513364434.16,24365,6.56,71844.0,-8.23,-12.39,-12.39,0,*5F
1513364435.4,24366,6.56,71848.5,-8.23,-12.39,-12.39,0,*5C
1513364436.66,24367,6.56,71850.5,-8.23,-12.39,-12.35,0,*51
1513364437.92,24368,6.56,71846.3,-8.23,-12.39,-12.35,0,*5E
1513364439.16,24369,6.56,71846.3,-8.21,-12.39,-12.35,0,*5D
1513364440.39,24370,6.56,71848.5,-8.23,-12.39,-12.39,0,*5B
1513364441.63,24371,6.56,71850.5,-8.23,-12.39,-12.39,0,*5A
1513364442.84,24372,6.56,71844.0,-8.21,-12.39,-12.39,0,*5B
1513364444.07,24373,6.56,71846.0,-8.23,-12.39,-12.39,0,*58
1513364445.3,24374,6.56,71848.8,-8.23,-12.39,-12.25,0,*52
1513364446.51,24375,6.56,71850.8,-8.21,-12.39,-12.39,0,*5C
1513364447.73,24376,6.56,71844.3,-8.21,-12.39,-12.39,0,*5F
1513364448.96,24377,6.56,71846.3,-8.23,-12.39,-12.39,0,*5C
1513364450.19,24378,6.56,71850.5,-8.23,-12.39,-12.47,0,*5A
1513364451.43,24379,6.56,71844.0,-8.23,-12.39,-12.39,0,*52
1513364452.72,24380,6.56,71846.3,-8.23,-12.53,-12.35,0,*54
1513364453.95,24381,6.56,71840.8,-8.23,-12.47,-12.39,0,*5C
1513364455.19,24382,6.56,71846.5,-8.23,-12.47,-12.39,0,*5F
1513364456.42,24383,6.56,71848.0,-8.23,-12.47,-12.47,0,*57
1513364457.66,24384,6.56,71846.3,-8.23,-12.47,-12.39,0,*59
1513364458.93,24385,6.56,71846.5,-8.23,-12.47,-12.35,0,*54
1513364460.16,24386,6.56,71846.0,-8.23,-12.47,-12.39,0,*5B
1513364461.4,24387,6.56,71844.8,-8.25,-12.53,-12.39,0,*59
1513364462.64,24388,6.56,71846.5,-8.25,-12.53,-12.29,0,*57
1513364463.9,24389,6.56,71846.0,-8.25,-12.57,-12.53,0,*5F
1513364465.14,24390,6.56,71846.0,-8.25,-12.53,-12.29,0,*5E
1513364466.38,24391,6.56,71844.8,-8.25,-12.53,-12.43,0,*53
1513364467.61,24392,6.56,71850.0,-8.25,-12.53,-12.43,0,*50
1513364468.88,24393,6.56,71844.0,-8.25,-12.53,-12.53,0,*50
1513364470.14,24394,6.56,71844.8,-8.27,-12.53,-12.43,0,*54
1513364471.37,24395,6.56,71846.0,-8.25,-12.53,-12.43,0,*57
1513364472.61,24396,6.56,71842.8,-8.25,-12.53,-12.39,0,*59
1513364473.85,24397,6.56,71840.3,-8.25,-12.53,-12.43,0,*55
1513364475.08,24398,6.56,71848.3,-8.25,-12.53,-12.43,0,*5A
1513364476.35,24399,6.56,71846.8,-8.27,-12.53,-12.43,0,*59
1513364477.61,24400,6.56,71846.5,-8.27,-12.53,-12.43,0,*5E
1513364478.84,24401,6.56,71844.5,-8.25,-12.53,-12.39,0,*50
1513364480.13,24402,6.56,71846.3,-8.27,-12.53,-12.53,0,*5D
1513364481.39,24403,6.56,71844.8,-8.25,-12.57,-12.53,0,*5A
1513364482.65,24404,6.56,71848.8,-8.27,-12.53,-12.43,0,*5A
1513364483.89,24405,6.56,71846.5,-8.25,-12.53,-12.39,0,*54
1513364485.15,24406,6.56,71840.8,-8.25,-12.57,-12.53,0,*5F
1513364486.38,24407,6.56,71844.3,-8.27,-12.43,-12.43,0,*58
1513364487.64,24408,6.56,71846.3,-8.25,-12.53,-12.53,0,*55
1513364488.93,24409,6.56,71840.5,-8.27,-12.53,-12.53,0,*56
1513364490.19,24410,6.56,71842.3,-8.27,-12.53,-12.43,0,*5F
1513364491.43,24411,6.56,71844.0,-8.25,-12.53,-12.39,0,*51
1513364492.69,24412,6.56,71844.5,-8.27,-12.53,-12.43,0,*5D
1513364493.94,24413,6.56,71844.0,-8.27,-12.43,-12.53,0,*5C
1513364495.2,24414,6.56,71842.0,-8.27,-12.53,-12.43,0,*5B
1513364496.46,24415,6.56,71842.3,-8.27,-12.57,-12.43,0,*5E
1513364497.72,24416,6.56,71840.8,-8.27,-12.53,-12.43,0,*59
1513364498.96,24417,6.56,71842.5,-8.25,-12.53,-12.43,0,*5A
1513364500.22,24418,6.56,71846.0,-8.27,-12.53,-12.43,0,*57
1513364501.45,24419,6.56,71842.0,-8.27,-12.43,-12.43,0,*57
1513364502.71,24420,6.56,71842.5,-8.27,-12.53,-12.43,0,*5C
1513364503.97,24421,6.56,71844.8,-8.27,-12.53,-12.43,0,*5D
1513364505.23,24422,6.56,71840.5,-8.27,-12.53,-12.43,0,*5E
1513364506.52,24423,6.56,71840.3,-8.27,-12.53,-12.53,0,*5E
1513364507.78,24424,6.56,71840.0,-8.27,-12.53,-12.43,0,*58
1513364509.06,24425,6.56,71842.3,-8.27,-12.53,-12.53,0,*58
1513364510.35,24426,6.56,71842.3,-8.27,-12.53,-12.53,0,*5B
1513364511.61,24427,6.56,71840.8,-8.27,-12.53,-12.43,0,*5B
1513364512.87,24428,6.56,71840.3,-8.29,-12.57,-12.57,0,*5B
1513364514.16,24429,6.56,71840.3,-8.27,-12.53,-12.53,0,*54
1513364515.42,24430,6.56,71842.5,-8.29,-12.61,-12.57,0,*57
1513364516.71,24431,6.56,71844.5,-8.27,-12.53,-12.53,0,*5D
1513364517.97,24432,6.56,71842.8,-8.29,-12.57,-12.57,0,*50
1513364519.23,24433,6.56,71840.8,-8.29,-12.57,-12.57,0,*51
1513364520.49,24434,6.56,71840.3,-8.29,-12.61,-12.57,0,*53
1513364521.75,24435,6.56,71840.5,-8.29,-12.57,-12.57,0,*57
1513364523.01,24436,6.56,71844.3,-8.29,-12.57,-12.57,0,*54
1513364524.27,24437,6.56,71844.0,-8.29,-12.61,-12.57,0,*50
1513364525.53,24438,6.56,71840.8,-8.29,-12.57,-12.57,0,*5A
1513364526.76,24439,6.56,71840.5,-8.29,-12.57,-12.47,0,*5A
1513364528.02,24440,6.56,71842.0,-8.29,-12.57,-12.57,0,*55
1513364529.28,24441,6.56,71840.3,-8.29,-12.61,-12.57,0,*51
1513364530.54,24442,6.56,71840.3,-8.29,-12.57,-12.57,0,*57
1513364531.8,24443,6.56,71842.8,-8.33,-12.57,-12.57,0,*5D
1513364533.06,24444,6.56,71842.0,-8.29,-12.57,-12.57,0,*51
1513364534.32,24445,6.56,71842.5,-8.33,-12.57,-12.57,0,*5B
1513364535.58,24446,6.56,71842.0,-8.29,-12.57,-12.57,0,*53
1513364536.82,24447,6.56,71840.5,-8.29,-12.57,-12.47,0,*53
1513364538.05,24448,6.56,71840.8,-8.33,-12.57,-12.47,0,*57
1513364539.32,24449,6.56,71838.8,-8.29,-12.57,-12.57,0,*5C
1513364540.55,24450,6.56,71836.0,-8.29,-12.57,-12.47,0,*55
1513364541.81,24451,6.56,71840.5,-8.33,-12.61,-12.57,0,*5B
1513364543.07,24452,6.56,71840.5,-8.29,-12.61,-12.57,0,*53
1513364544.32,24453,6.56,71842.8,-8.33,-12.57,-12.57,0,*5C
1513364545.58,24454,6.56,71838.5,-8.33,-12.57,-12.57,0,*5B
1513364546.82,24455,6.56,71838.0,-8.29,-12.57,-12.47,0,*50
1513364548.08,24456,6.56,71838.5,-8.29,-12.57,-12.57,0,*52
1513364549.34,24457,6.56,71836.0,-8.29,-12.57,-12.57,0,*53
1513364550.58,24458,6.56,71834.8,-8.33,-12.57,-12.47,0,*56
1513364551.84,24459,6.56,71838.0,-8.29,-12.57,-12.57,0,*5D
1513364553.09,24460,6.56,71840.5,-8.33,-12.61,-12.57,0,*59
1513364554.35,24461,6.56,71840.0,-8.33,-12.61,-12.57,0,*58
1513364555.61,24462,6.56,71840.8,-8.29,-12.61,-12.57,0,*50
1513364556.86,24463,6.56,71842.5,-8.33,-12.61,-12.61,0,*5F
1513364558.12,24464,6.56,71838.8,-8.33,-12.61,-12.57,0,*5D
1513364559.37,24465,6.56,71842.8,-8.33,-12.61,-12.61,0,*59
1513364560.63,24466,6.56,71840.0,-8.33,-12.71,-12.61,0,*5B
1513364561.89,24467,6.56,71838.3,-8.29,-12.61,-12.61,0,*50
1513364563.15,24468,6.56,71840.8,-8.33,-12.57,-12.57,0,*54
1513364564.41,24469,6.56,71842.5,-8.33,-12.61,-12.71,0,*54
1513364565.67,24470,6.56,71842.8,-8.33,-12.71,-12.61,0,*5C
1513364566.92,24471,6.56,71840.3,-8.33,-12.71,-12.61,0,*5D
1513364568.18,24472,6.56,71842.3,-8.33,-12.71,-12.61,0,*5E
1513364569.44,24473,6.56,71840.0,-8.33,-12.61,-12.57,0,*5B
1513364570.69,24474,6.56,71846.5,-8.33,-12.61,-12.57,0,*5C
1513364571.95,24475,6.56,71842.8,-8.33,-12.61,-12.57,0,*5D
1513364573.2,24476,6.56,71840.0,-8.33,-12.61,-12.57,0,*5E
1513364574.46,24477,6.56,71844.3,-8.33,-12.61,-12.61,0,*5A
1513364575.72,24478,6.56,71842.3,-8.33,-12.71,-12.61,0,*54
1513364576.98,24479,6.56,71840.0,-8.29,-12.75,-12.61,0,*5A
1513364578.26,24480,6.56,71842.8,-8.35,-12.65,-12.65,0,*54
1513364579.54,24481,6.56,71840.8,-8.35,-12.61,-12.61,0,*55
1513364580.82,24482,6.56,71846.0,-8.35,-12.65,-12.61,0,*52
1513364582.08,24483,6.56,71840.5,-8.37,-12.65,-12.61,0,*51
1513364583.34,24484,6.56,71842.5,-8.33,-12.61,-12.71,0,*57
1513364584.6,24485,6.56,71846.3,-8.33,-12.57,-12.61,0,*52
1513364585.88,24486,6.56,71840.0,-8.35,-12.65,-12.65,0,*52
1513364587.16,24487,6.56,71840.3,-8.35,-12.65,-12.65,0,*53
1513364588.42,24488,6.56,71842.5,-8.37,-12.61,-12.61,0,*5E
1513364589.7,24489,6.56,71840.5,-8.35,-12.61,-12.53,0,*5C
1513364590.98,24490,6.56,71846.5,-8.35,-12.65,-12.65,0,*55
1513364592.27,24491,6.56,71842.3,-8.35,-12.75,-12.75,0,*54
1513364593.56,24492,6.56,71840.3,-8.35,-12.79,-12.75,0,*5B
1513364594.84,24493,6.56,71840.0,-8.35,-12.75,-12.65,0,*57
1513364596.1,24494,6.56,71842.5,-8.37,-12.65,-12.65,0,*53
1513364597.38,24495,6.56,71842.3,-8.35,-12.65,-12.65,0,*50
1513364598.66,24496,6.56,71842.3,-8.35,-12.61,-12.65,0,*57
1513364599.94,24497,6.56,71846.3,-8.35,-12.65,-12.65,0,*52
1513364601.22,24498,6.56,71842.0,-8.35,-12.65,-12.61,0,*59
1513364602.5,24499,6.56,71840.5,-8.35,-12.65,-12.61,0,*58
1513364603.76,24500,6.56,71844.0,-8.37,-12.65,-12.61,0,*5B
1513364605.04,24501,6.56,71844.3,-8.35,-12.65,-12.61,0,*58
1513364606.32,24502,6.56,71846.0,-8.35,-12.65,-12.61,0,*5B
1513364607.61,24503,6.56,71842.8,-8.35,-12.65,-12.61,0,*5A
1513364608.89,24504,6.56,71842.5,-8.35,-12.61,-12.61,0,*59
1513364610.15,24505,6.56,71842.3,-8.37,-12.61,-12.53,0,*5B
1513364611.43,24506,6.56,71842.8,-8.35,-12.61,-12.61,0,*5B
1513364612.71,24507,6.56,71838.0,-8.35,-12.61,-12.61,0,*5A
1513364613.99,24508,6.56,71840.8,-8.35,-12.61,-12.53,0,*54
1513364615.28,24509,6.56,71838.3,-8.35,-12.61,-12.53,0,*55
1513364616.56,24510,6.56,71840.0,-8.35,-12.61,-12.61,0,*5C
1513364617.84,24511,6.56,71840.8,-8.35,-12.61,-12.61,0,*5D
1513364619.1,24512,6.56,71842.0,-8.37,-12.61,-12.53,0,*5D
1513364620.35,24513,6.56,71846.5,-8.37,-12.61,-12.61,0,*5D
1513364621.64,24514,6.56,71840.8,-8.35,-12.65,-12.61,0,*5C
1513364622.92,24515,6.56,71844.3,-8.35,-12.61,-12.61,0,*59
1513364624.15,24516,6.56,71840.8,-8.37,-12.61,-12.47,0,*5C
1513364625.41,24517,6.56,71844.8,-8.37,-12.61,-12.53,0,*58
1513364626.67,24518,6.56,71844.3,-8.35,-12.53,-12.47,0,*51
1513364627.91,24519,6.56,71842.0,-8.35,-12.47,-12.47,0,*55
1513364629.14,24520,6.56,71842.3,-8.37,-12.53,-12.47,0,*58
1513364630.38,24521,6.56,71844.8,-8.35,-12.47,-12.39,0,*57
1513364631.64,24522,6.56,71846.0,-8.35,-12.53,-12.39,0,*51
1513364632.91,24523,6.56,71842.5,-8.35,-12.53,-12.39,0,*50
1513364634.14,24524,6.56,71846.0,-8.35,-12.47,-12.39,0,*52
1513364635.38,24525,6.56,71840.8,-8.35,-12.39,-12.25,0,*57
1513364636.64,24526,6.56,71846.0,-8.35,-12.35,-12.39,0,*55
1513364637.87,24527,6.56,71842.5,-8.37,-12.39,-12.35,0,*56
1513364639.08,24528,6.56,71842.3,-8.37,-12.39,-12.39,0,*55
1513364640.29,24529,6.56,71844.3,-8.37,-12.39,-12.39,0,*54
1513364641.53,24530,6.56,71844.0,-8.37,-12.35,-12.25,0,*5D
1513364642.79,24531,6.56,71842.0,-8.37,-12.35,-12.35,0,*5D
1513364644.03,24532,6.56,71842.3,-8.37,-12.39,-12.35,0,*52
1513364645.26,24533,6.56,71840.0,-8.37,-12.35,-12.39,0,*53
1513364646.5,24534,6.56,71842.0,-8.37,-12.39,-12.35,0,*54
1513364647.73,24535,6.56,71842.0,-8.37,-12.39,-12.35,0,*55
1513364649.0,24536,6.56,71840.8,-8.35,-12.35,-12.25,0,*59
1513364650.23,24537,6.56,71842.8,-8.37,-12.35,-12.25,0,*5A
1513364651.49,24538,6.56,71840.8,-8.37,-12.35,-12.11,0,*52
1513364652.73,24539,6.56,71840.8,-8.35,-12.25,-12.21,0,*53
1513364653.95,24540,6.56,71842.8,-8.37,-12.25,-12.21,0,*5F
1513364655.16,24541,6.56,71846.0,-8.37,-12.25,-12.21,0,*5E
1513364656.38,24542,6.56,71842.5,-8.37,-12.25,-12.21,0,*5D
1513364657.59,24543,6.56,71840.8,-8.37,-12.25,-12.25,0,*58
1513364658.81,24544,6.56,71838.8,-8.37,-12.21,-12.21,0,*5F
1513364660.05,24545,6.56,71842.8,-8.37,-12.25,-12.11,0,*59
1513364661.29,24546,6.56,71840.3,-8.37,-12.21,-12.11,0,*5E
1513364662.53,24547,6.56,71836.8,-8.37,-12.11,-12.21,0,*5F
1513364663.77,24548,6.56,71836.5,-8.37,-12.21,-12.11,0,*50
1513364664.99,24549,6.56,71842.8,-8.37,-12.25,-12.21,0,*56
1513364666.21,24550,6.56,71842.3,-8.37,-12.21,-12.21,0,*5A
1513364667.42,24551,6.56,71838.8,-8.37,-12.21,-12.25,0,*5F
1513364668.67,24552,6.56,71836.5,-8.37,-12.21,-12.35,0,*5D
1513364669.88,24553,6.56,71842.5,-8.37,-12.25,-12.21,0,*5D
1513364671.13,24554,6.56,71836.3,-8.35,-12.21,-12.25,0,*58
1513364672.34,24555,6.56,71840.3,-8.37,-12.21,-12.21,0,*5F
1513364673.56,24556,6.56,71840.5,-8.37,-12.21,-12.25,0,*58
1513364674.77,24557,6.56,71840.0,-8.37,-12.25,-12.25,0,*5D
1513364676.01,24558,6.56,71842.5,-8.37,-12.21,-12.11,0,*51
1513364677.23,24559,6.56,71840.5,-8.37,-12.21,-12.25,0,*57
1513364678.47,24560,6.56,71840.3,-8.37,-12.25,-12.35,0,*58
1513364679.68,24561,6.56,71840.3,-8.37,-12.25,-12.25,0,*58
1513364680.93,24562,6.56,71838.5,-8.35,-12.21,-12.21,0,*59
1513364682.15,24563,6.56,71838.8,-8.37,-12.21,-12.21,0,*5A
1513364683.38,24564,6.56,71838.3,-8.37,-12.11,-12.21,0,*5E
1513364684.6,24565,6.56,71836.5,-8.37,-12.21,-12.21,0,*5C
1513364685.87,24566,6.56,71838.5,-8.37,-12.11,-12.11,0,*5F
1513364687.1,24567,6.56,71842.0,-8.39,-12.29,-12.25,0,*5C
1513364688.34,24568,6.56,71838.5,-8.37,-12.11,-12.21,0,*52
1513364689.56,24569,6.56,71842.0,-8.37,-12.21,-12.25,0,*54
1513364690.77,24570,6.56,71838.0,-8.37,-12.25,-12.25,0,*58
1513364692.01,24571,6.56,71840.0,-8.39,-12.25,-12.29,0,*5B
1513364693.24,24572,6.56,71836.5,-8.39,-12.25,-12.29,0,*58
1513364694.48,24573,6.56,71838.5,-8.39,-12.29,-12.29,0,*55
1513364695.7,24574,6.56,71838.3,-8.41,-12.29,-12.29,0,*5D
1513364696.91,24575,6.56,71838.5,-8.37,-12.25,-12.25,0,*5D
1513364698.15,24576,6.56,71840.0,-8.39,-12.29,-12.43,0,*5C
1513364699.35,24577,6.56,71836.8,-8.41,-12.39,-12.39,0,*5E
1513364700.58,24578,6.56,71836.5,-8.39,-12.43,-12.39,0,*53
1513364701.82,24579,6.56,71838.5,-8.39,-12.43,-12.39,0,*52
1513364703.05,24580,6.56,71838.3,-8.39,-12.39,-12.39,0,*59
1513364704.28,24581,6.56,71838.5,-8.39,-12.43,-12.39,0,*55
1513364705.51,24582,6.56,71838.5,-8.39,-12.29,-12.39,0,*5A
1513364706.75,24583,6.56,71838.5,-8.39,-12.25,-12.39,0,*57
1513364707.99,24584,6.56,71838.0,-8.39,-12.29,-12.39,0,*5C
1513364709.22,24585,6.56,71840.3,-8.39,-12.39,-12.43,0,*51
1513364710.45,24586,6.56,71838.0,-8.39,-12.43,-12.29,0,*53
1513364711.68,24587,6.56,71838.3,-8.39,-12.39,-12.43,0,*53
1513364712.97,24588,6.56,71838.5,-8.39,-12.57,-12.53,0,*55
1513364714.2,24589,6.56,71834.8,-8.39,-12.43,-12.43,0,*50
1513364715.4,24590,6.56,71840.5,-8.41,-12.43,-12.43,0,*57
1513364716.61,24591,6.56,71836.8,-8.41,-12.43,-12.43,0,*56
1513364717.82,24592,6.56,71836.0,-8.41,-12.43,-12.43,0,*55
1513364719.03,24593,6.56,71834.8,-8.41,-12.43,-12.43,0,*54
1513364720.29,24594,6.56,71838.3,-8.41,-12.53,-12.53,0,*53
1513364721.55,24595,6.56,71836.8,-8.39,-12.53,-12.43,0,*5C
1513364722.84,24596,6.56,71838.0,-8.39,-12.53,-12.53,0,*5E
1513364724.05,24597,6.56,71838.8,-8.41,-12.39,-12.43,0,*5D
1513364725.25,24598,6.56,71838.5,-8.41,-12.43,-12.43,0,*5F
1513364726.49,24599,6.56,71836.8,-8.39,-12.39,-12.39,0,*51
1513364727.7,24600,6.56,71838.0,-8.41,-12.25,-12.39,0,*50
1513364728.9,24601,6.56,71836.5,-8.41,-12.39,-12.43,0,*51
1513364730.11,24602,6.56,71836.8,-8.41,-12.39,-12.39,0,*5F
1513364731.32,24603,6.56,71836.5,-8.41,-12.43,-12.43,0,*5E
1513364732.55,24604,6.56,71836.5,-8.41,-12.57,-12.43,0,*5C
1513364733.82,24605,6.56,71836.5,-8.41,-12.53,-12.53,0,*58
1513364735.08,24606,6.56,71836.8,-8.41,-12.53,-12.53,0,*5B
1513364736.34,24607,6.56,71836.8,-8.43,-12.43,-12.57,0,*5D
1513364737.62,24608,6.56,71838.0,-8.43,-12.61,-12.61,0,*57
1513364738.82,24609,6.56,71838.3,-8.41,-12.39,-12.43,0,*59
1513364740.03,24610,6.56,71838.5,-8.41,-12.39,-12.29,0,*5D
1513364741.26,24611,6.56,71838.8,-8.41,-12.43,-12.53,0,*5C
1513364742.53,24612,6.56,71836.5,-8.41,-12.53,-12.53,0,*5E
1513364743.76,24613,6.56,71834.8,-8.43,-12.47,-12.43,0,*59
1513364745.04,24614,6.56,71838.8,-8.43,-12.57,-12.57,0,*5A
1513364746.31,24615,6.56,71840.0,-8.45,-12.57,-12.57,0,*5D
1513364747.56,24616,6.56,71838.3,-8.43,-12.47,-12.57,0,*59
1513364748.79,24617,6.56,71838.0,-8.43,-12.43,-12.47,0,*5D
1513364750.02,24618,6.56,71838.5,-8.43,-12.43,-12.47,0,*52
1513364751.25,24619,6.56,71838.0,-8.43,-12.43,-12.43,0,*57
1513364752.47,24620,6.56,71836.5,-8.45,-12.43,-12.43,0,*5B
1513364753.7,24621,6.56,71840.5,-8.43,-12.43,-12.47,0,*58
1513364754.96,24622,6.56,71840.0,-8.43,-12.35,-12.43,0,*5E
1513364756.2,24623,6.56,71836.8,-8.45,-12.29,-12.35,0,*55
1513364757.45,24624,6.56,71838.5,-8.45,-12.35,-12.43,0,*5E
1513364758.73,24625,6.56,71840.3,-8.43,-12.35,-12.35,0,*58
1513364759.95,24626,6.56,71840.5,-8.45,-12.29,-12.29,0,*5D
1513364761.22,24627,6.56,71838.5,-8.45,-12.35,-12.35,0,*5C
1513364762.49,24628,6.56,71840.5,-8.43,-12.29,-12.35,0,*58
1513364763.73,24629,6.56,71836.0,-8.45,-12.35,-12.43,0,*53
1513364764.98,24630,6.56,71836.8,-8.45,-12.29,-12.35,0,*57
1513364766.23,24631,6.56,71834.5,-8.45,-12.29,-12.35,0,*56
1513364767.48,24632,6.56,71840.3,-8.45,-12.29,-12.35,0,*55
1513364768.72,24633,6.56,71842.0,-8.43,-12.21,-12.29,0,*57
1513364769.94,24634,6.56,71836.5,-8.45,-12.21,-12.29,0,*56
1513364771.19,24635,6.56,71836.0,-8.45,-12.15,-12.29,0,*50
1513364772.46,24636,6.56,71840.3,-8.45,-12.35,-12.35,0,*5C
1513364773.7,24637,6.56,71838.3,-8.43,-12.21,-12.21,0,*5B
1513364774.94,24638,6.56,71838.8,-8.45,-12.15,-12.21,0,*55
1513364776.17,24639,6.56,71838.0,-8.45,-12.21,-12.21,0,*53
1513364777.41,24640,6.56,71840.3,-8.45,-12.15,-12.21,0,*5A
1513364778.66,24641,6.56,71838.3,-8.45,-12.15,-12.21,0,*5B
1513364779.9,24642,6.56,71840.0,-8.45,-12.15,-12.29,0,*50
1513364781.14,24643,6.56,71838.3,-8.45,-12.15,-12.21,0,*59
1513364782.39,24644,6.56,71836.3,-8.43,-12.21,-12.21,0,*5F
1513364783.63,24645,6.56,71840.0,-8.45,-12.15,-12.21,0,*5F
1513364784.89,24646,6.56,71838.8,-8.43,-12.15,-12.21,0,*5A
1513364786.13,24647,6.56,71836.3,-8.45,-12.15,-12.29,0,*55
1513364787.36,24648,6.56,71836.5,-8.45,-12.21,-12.29,0,*5D
1513364788.63,24649,6.56,71836.5,-8.45,-12.35,-12.35,0,*54
1513364789.85,24650,6.56,71836.5,-8.45,-12.29,-12.43,0,*50
1513364791.09,24651,6.56,71838.5,-8.45,-12.35,-12.43,0,*5C
1513364792.34,24652,6.56,71836.3,-8.45,-12.29,-12.35,0,*53
1513364793.56,24653,6.56,71838.5,-8.45,-12.29,-12.43,0,*53
1513364794.81,24654,6.56,71838.8,-8.45,-12.29,-12.35,0,*55
1513364796.07,24655,6.56,71836.3,-8.47,-12.35,-12.47,0,*5E
1513364797.3,24656,6.56,71836.8,-8.47,-12.39,-12.39,0,*58
1513364798.52,24657,6.56,71836.3,-8.49,-12.25,-12.39,0,*5A
1513364799.78,24658,6.56,71838.3,-8.47,-12.35,-12.25,0,*57
1513364801.05,24659,6.56,71838.5,-8.47,-12.25,-12.35,0,*56
1513364802.32,24660,6.56,71838.5,-8.47,-12.25,-12.35,0,*5C
1513364803.56,24661,6.56,71834.8,-8.47,-12.25,-12.25,0,*5C
1513364804.83,24662,6.56,71834.8,-8.47,-12.25,-12.35,0,*5E
1513364806.1,24663,6.56,71840.5,-8.47,-12.21,-12.35,0,*5B
1513364807.34,24664,6.56,71842.3,-8.47,-12.21,-12.25,0,*5D
1513364808.61,24665,6.56,71838.3,-8.47,-12.25,-12.35,0,*59
1513364809.88,24666,6.56,71834.0,-8.47,-12.25,-12.35,0,*5A
1513364811.14,24667,6.56,71838.0,-8.47,-12.35,-12.39,0,*56
1513364812.4,24668,6.56,71836.3,-8.47,-12.35,-12.39,0,*59
1513364813.64,24669,6.56,71836.3,-8.47,-12.25,-12.47,0,*50
1513364814.91,24670,6.56,71836.3,-8.47,-12.35,-12.39,0,*50
1513364816.17,24671,6.56,71836.0,-8.47,-12.35,-12.47,0,*58
1513364817.46,24672,6.56,71836.3,-8.47,-12.35,-12.35,0,*5E
1513364818.75,24673,6.56,71836.0,-8.47,-12.35,-12.35,0,*5F
1513364819.99,24674,6.56,71836.5,-8.49,-12.35,-12.39,0,*5A
1513364821.23,24675,6.56,71834.8,-8.49,-12.25,-12.35,0,*56
1513364822.47,24676,6.56,71838.3,-8.49,-12.35,-12.39,0,*58
1513364823.71,24677,6.56,71838.0,-8.47,-12.25,-12.39,0,*56
1513364824.92,24678,6.56,71836.5,-8.49,-12.25,-12.39,0,*57
1513364826.16,24679,6.56,71838.0,-8.47,-12.25,-12.39,0,*58
1513364827.43,24680,6.56,71836.5,-8.47,-12.35,-12.39,0,*5F
1513364828.66,24681,6.56,71834.0,-8.49,-12.35,-12.47,0,*59
1513364829.9,24682,6.56,71838.8,-8.47,-12.39,-12.47,0,*58
1513364831.16,24683,6.56,71834.3,-8.47,-12.39,-12.53,0,*5C
1513364832.42,24684,6.56,71838.5,-8.47,-12.39,-12.53,0,*5B
1513364833.68,24685,6.56,71838.8,-8.47,-12.35,-12.39,0,*5A
1513364834.92,24686,6.56,71834.5,-8.47,-12.39,-12.47,0,*5C
1513364836.16,24687,6.56,71836.8,-8.49,-12.35,-12.47,0,*5F
1513364837.42,24688,6.56,71842.0,-8.47,-12.35,-12.39,0,*57
1513364838.68,24689,6.56,71834.0,-8.49,-12.35,-12.35,0,*54
1513364839.89,24690,6.56,71838.3,-8.49,-12.39,-12.47,0,*55
1513364841.13,24691,6.56,71842.8,-8.49,-12.35,-12.39,0,*51
1513364842.4,24692,6.56,71838.8,-8.47,-12.25,-12.35,0,*51
1513364843.64,24693,6.56,71832.0,-8.49,-12.21,-12.35,0,*5A
1513364844.89,24694,6.56,71836.5,-8.49,-12.21,-12.35,0,*5D
1513364846.16,24695,6.56,71836.5,-8.47,-12.25,-12.35,0,*56
1513364847.36,24696,6.56,71836.8,-8.49,-12.39,-12.47,0,*53
1513364848.57,24697,6.56,71838.8,-8.49,-12.39,-12.47,0,*52
1513364849.81,24698,6.56,71838.5,-8.47,-12.39,-12.47,0,*53
1513364851.01,24699,6.56,71838.5,-8.49,-12.39,-12.47,0,*5C
1513364852.22,24700,6.56,71842.8,-8.49,-12.47,-12.47,0,*54
1513364853.46,24701,6.56,71840.8,-8.49,-12.35,-12.25,0,*54
1513364854.68,24702,6.56,71836.5,-8.49,-12.21,-12.21,0,*56
1513364855.92,24703,6.56,71832.5,-8.49,-12.11,-12.21,0,*54
1513364857.16,24704,6.56,71830.8,-8.49,-12.07,-12.21,0,*54
1513364858.38,24705,6.56,71828.5,-8.49,-12.21,-12.21,0,*51
1513364859.64,24706,6.56,71834.3,-8.49,-12.11,-12.11,0,*52
1513364860.85,24707,6.56,71834.8,-8.49,-12.21,-12.25,0,*57
1513364862.07,24708,6.56,71832.3,-8.49,-12.21,-12.25,0,*58
1513364863.31,24709,6.56,71830.0,-8.49,-12.07,-12.21,0,*59
1513364864.55,24710,6.56,71836.5,-8.47,-12.25,-12.39,0,*56
1513364865.76,24711,6.56,71836.5,-8.49,-12.47,-12.39,0,*5D
1513364866.97,24712,6.56,71836.3,-8.49,-12.25,-12.25,0,*57
1513364868.19,24713,6.56,71832.5,-8.49,-12.25,-12.25,0,*56
1513364869.43,24714,6.56,71834.0,-8.49,-12.25,-12.35,0,*50
1513364870.64,24715,6.56,71836.0,-8.49,-12.21,-12.25,0,*54
1513364871.89,24716,6.56,71836.0,-8.47,-12.21,-12.25,0,*59
1513364873.1,24717,6.56,71832.3,-8.49,-12.25,-12.25,0,*52
1513364874.34,24718,6.56,71838.0,-8.49,-12.25,-12.35,0,*5C
1513364875.61,24719,6.56,71836.8,-8.47,-12.21,-12.35,0,*57
1513364876.88,24720,6.56,71836.0,-8.49,-12.35,-12.35,0,*56
1513364878.12,24721,6.56,71834.8,-8.49,-12.25,-12.35,0,*56
1513364879.38,24722,6.56,71838.8,-8.49,-12.35,-12.35,0,*54
1513364880.62,24723,6.56,71834.5,-8.49,-12.35,-12.39,0,*59
1513364881.83,24724,6.56,71838.3,-8.49,-12.39,-12.39,0,*52
1513364883.07,24725,6.56,71834.8,-8.49,-12.35,-12.39,0,*5F
1513364884.33,24726,6.56,71836.8,-8.49,-12.35,-12.35,0,*50
1513364885.57,24727,6.56,71840.0,-8.49,-12.35,-12.39,0,*5D
1513364886.8,24728,6.56,71836.8,-8.49,-12.35,-12.47,0,*5B
1513364888.01,24729,6.56,71838.8,-8.49,-12.39,-12.39,0,*5F
1513364889.22,24730,6.56,71834.0,-8.49,-12.39,-12.47,0,*5E
1513364890.45,24731,6.56,71838.0,-8.47,-12.39,-12.39,0,*58
1513364891.69,24732,6.56,71834.3,-8.49,-12.35,-12.39,0,*59
1513364892.9,24733,6.56,71836.8,-8.49,-12.25,-12.39,0,*59
1513364894.14,24734,6.56,71838.3,-8.49,-12.35,-12.47,0,*56
1513364895.38,24735,6.56,71838.3,-8.49,-12.35,-12.47,0,*57
1513364896.59,24736,6.56,71836.5,-8.49,-12.39,-12.47,0,*58
1513364897.85,24737,6.56,71832.3,-8.47,-12.35,-12.47,0,*5B
1513364899.09,24738,6.56,71838.3,-8.49,-12.35,-12.39,0,*53
1513364900.32,24739,6.56,71838.3,-8.51,-12.43,-12.43,0,*57
1513364901.55,24740,6.56,71832.8,-8.51,-12.39,-12.43,0,*54
1513364902.79,24741,6.56,71834.3,-8.49,-12.35,-12.39,0,*5D
1513364904.01,24742,6.56,71836.8,-8.49,-12.21,-12.39,0,*5B
1513364905.22,24743,6.56,71832.3,-8.49,-12.25,-12.39,0,*5E
1513364906.44,24744,6.56,71834.0,-8.49,-12.21,-12.25,0,*50